Вернуться в каталог

ONEWEB-0194

АктивенСвязьPO
NORAD 48237·PAYLOAD·🇬🇧 United Kingdom

Запущен Apr 25, 2021 с Vostochny Cosmodrome

Loading…

Ближайшие Пролёты (ближайшие 24 часа)

TLE

СвежийSource: CelesTrak SupGP

Эпоха: Sep 14, 2026, 17:49 UTC

1 48237C 21031AD  26257.74250417 -.00000489  00000+0 -13215-2 0  2576
2 48237  87.8899 271.8490 0002101  88.3553  12.7109 13.14505891    10

Отслеживайте ONEWEB-0194 в реальном времени с AllMySat

Download on the App Store